Flag for U.S.A. Weather past 2 weeks in Ontario, California, U.S.A.

Now
87 °F

Sunny.


Feels Like: 85 °F
Forecast: 61 / 90 °F
Wind: 9 mph from West

Location: Ontario International Airport

Current Time: Sep 22, 2014 at 1:28:23 PM

Latest Report: Sep 22, 2014 at 12:53 PM


Visibility: 10 mi

Pressure: 29.91 "Hg

Humidity: 32%

Dew point: 54 °F

Location of OntarioLocation

Historic Weather in Ontario — Graph

°F

Ontario temperature yesterday

Maximum temperature yesterday: 83 °F (at 3:53 PM)
Minimum temperature yesterday: 64 °F (at 3:53 AM)
Average temperature yesterday: 71 °F

Past Weeks' High & Low Weather Summary

 TemperatureHumidityPressure
High107 °F (Sep 14, 2:53 PM)87% (Sep 20, 5:53 AM)29.98 "Hg (Sep 20, 5:53 AM)
Low62 °F (Sep 22, 4:53 AM)13% (Sep 13, 1:53 PM)29.62 "Hg (Sep 14, 2:53 PM)
Average82 °F44%29.78 "Hg
* Reported Sep 7 11:53 AM — Sep 22 11:53 AM, Ontario, Weather by CustomWeather, © 2014

Note: Actual official high and low records may vary slightly from our data, if they occured in-between our weather recording intervals... More about our weather records

Advertising

Ontario weather history for previous 24 hours

 ConditionsComfort  
Time TempWeatherWind HumidityBarometerVisibility
11:53 AM
Sep 22
84 °FSunny.7 mph40%29.93 "Hg10 mi
10:53 AM78 °FSunny.6 mph50%29.95 "Hg8 mi
9:53 AM73 °FSunny.No wind59%29.96 "Hg8 mi
8:53 AM70 °FSunny.No wind68%29.96 "Hg8 mi
7:53 AM67 °FSunny.No wind73%29.95 "Hg9 mi
6:53 AM62 °FFog.No wind83%29.93 "Hg9 mi
5:53 AM63 °FClear.No wind81%29.92 "Hg10 mi
4:53 AM62 °FClear.No wind83%29.91 "Hg10 mi
3:53 AM64 °FClear.No wind81%29.92 "Hg10 mi
2:53 AM65 °FClear.No wind78%29.93 "Hg10 mi
1:53 AM64 °FClear.No wind81%29.94 "Hg10 mi
12:53 AM66 °FClear.No wind75%29.93 "Hg10 mi
11:53 PM
Sep 21
67 °FClear.No wind73%29.94 "Hg10 mi
10:53 PM68 °FClear.3 mph70%29.93 "Hg10 mi
9:53 PM69 °FClear.5 mph68%29.93 "Hg10 mi
8:53 PM71 °FClear.7 mph63%29.92 "Hg10 mi
7:53 PM73 °FClear.10 mph59%29.90 "Hg10 mi
6:53 PM77 °FSunny.13 mph50%29.88 "Hg10 mi
5:53 PM82 °FSunny.12 mph38%29.87 "Hg10 mi
4:53 PM83 °FSunny.8 mph40%29.87 "Hg10 mi
3:53 PM83 °FPassing clouds.9 mph38%29.88 "Hg10 mi
2:53 PM82 °FPassing clouds.12 mph43%29.89 "Hg10 mi
1:53 PM78 °FPassing clouds.No wind52%29.91 "Hg9 mi
Weather by CustomWeather, © 2014

See weather overviewHow to use our weather pages